| time (UTC) | temp C | wind direction | speed KPH | gust KPH | rain 1hr cm | rain 24hr cm | rain mn cm | humidity % | barometer mb |
| 20260502190037 | 21 | 359 | 3.2 | 14.5 | 0.00 | 0.00 | 0.00 | 27 | 1017.0 |
| 20260502185526 | 21 | 55 | 6.4 | 14.5 | 0.00 | 0.00 | 0.00 | 22 | 1017.0 |
| 20260502185026 | 21 | 6 | 6.4 | 14.5 | 0.00 | 0.00 | 0.00 | 23 | 1017.1 |
| 20260502184540 | 20 | 19 | 6.4 | 14.5 | 0.00 | 0.00 | 0.00 | 21 | 1017.2 |
| 20260502184026 | 20 | 43 | 3.2 | 12.9 | 0.00 | 0.00 | 0.00 | 25 | 1017.2 |
| 20260502183527 | 20 | 345 | 4.8 | 12.9 | 0.00 | 0.00 | 0.00 | 25 | 1017.3 |
| 20260502183048 | 20 | 0 | 1.6 | 9.7 | 0.00 | 0.00 | 0.00 | 24 | 1017.4 |
| 20260502182528 | 20 | 209 | 3.2 | 9.7 | 0.00 | 0.00 | 0.00 | 24 | 1017.6 |
| 20260502182024 | 20 | 127 | 1.6 | 9.7 | 0.00 | 0.00 | 0.00 | 23 | 1017.7 |
| 20260502181538 | 20 | 236 | 3.2 | 11.3 | 0.00 | 0.00 | 0.00 | 24 | 1017.7 |
| 20260502181023 | 20 | 20 | 3.2 | 11.3 | 0.00 | 0.00 | 0.00 | 24 | 1017.8 |
| 20260502180523 | 20 | 61 | 6.4 | 11.3 | 0.00 | 0.00 | 0.00 | 25 | 1018.0 |
| 20260502164023 | 15 | 36 | 3.2 | 8.0 | 0.00 | 0.00 | 0.00 | 34 | 1018.7 |
| 20260502163522 | 15 | 37 | 3.2 | 9.7 | 0.00 | 0.00 | 0.00 | 35 | 1018.7 |
| 20260502163100 | 15 | 37 | 4.8 | 9.7 | 0.00 | 0.00 | 0.00 | 35 | 1018.8 |
| 20260502162530 | 14 | 56 | 4.8 | 11.3 | 0.00 | 0.00 | 0.00 | 36 | 1018.8 |
| 20260502162029 | 14 | 16 | 4.8 | 12.9 | 0.00 | 0.00 | 0.00 | 36 | 1018.8 |
| 20260502161537 | 13 | 32 | 6.4 | 12.9 | 0.00 | 0.00 | 0.00 | 37 | 1018.8 |
| 20260502161030 | 13 | 30 | 6.4 | 11.3 | 0.00 | 0.00 | 0.00 | 37 | 1018.7 |
| 20260502160535 | 13 | 68 | 4.8 | 11.3 | 0.00 | 0.00 | 0.00 | 39 | 1018.7 |
| 20260502152025 | 11 | 0 | 0.0 | 8.0 | 0.00 | 0.00 | 0.00 | 43 | 1018.9 |
| 20260502151538 | 11 | 0 | 1.6 | 8.0 | 0.00 | 0.00 | 0.00 | 47 | 1019.1 |
| 20260502151022 | 11 | 200 | 0.0 | 6.4 | 0.00 | 0.00 | 0.00 | 44 | 1019.1 |
| 20260502150522 | 11 | 200 | 1.6 | 6.4 | 0.00 | 0.00 | 0.00 | 43 | 1019.1 |
| 20260502130522 | 2 | 221 | 0.0 | 3.2 | 0.00 | 0.00 | 0.00 | 68 | 1019.0 |
| 20260502123522 | 0 | 0 | 0.0 | 1.6 | 0.00 | 0.00 | 0.00 | 74 | 1018.8 |
| 20260502123037 | 0 | 0 | 0.0 | 0.0 | 0.00 | 0.00 | 0.00 | 75 | 1018.9 |
| 20260502122522 | 0 | 0 | 0.0 | 0.0 | 0.00 | 0.00 | 0.00 | 76 | 1018.9 |
| 20260502122022 | 0 | 0 | 0.0 | 0.0 | 0.00 | 0.00 | 0.00 | 72 | 1018.9 |
| 20260502121546 | 0 | 0 | 0.0 | 0.0 | 0.00 | 0.00 | 0.00 | 72 | 1018.8 |
| 20260502121023 | 0 | 0 | 0.0 | 0.0 | 0.00 | 0.00 | 0.00 | 72 | 1018.8 |
| 20260502120526 | 0 | 0 | 0.0 | 1.6 | 0.00 | 0.00 | 0.00 | 71 | 1018.8 |
| 20260502115529 | 0 | 0 | 0.0 | 4.8 | 0.00 | 0.00 | 0.00 | 69 | 1018.8 |
| 20260502115025 | 1 | 240 | 0.0 | 4.8 | 0.00 | 0.00 | 0.00 | 68 | 1018.8 |
| 20260502114539 | 1 | 0 | 0.0 | 4.8 | 0.00 | 0.00 | 0.00 | 69 | 1018.7 |
| 20260502114026 | 1 | 240 | 1.6 | 4.8 | 0.00 | 0.00 | 0.00 | 67 | 1018.7 |
| 20260502113530 | 1 | 240 | 1.6 | 4.8 | 0.00 | 0.00 | 0.00 | 67 | 1018.7 |
| 20260502113037 | 2 | 236 | 1.6 | 4.8 | 0.00 | 0.00 | 0.00 | 65 | 1018.8 |
| 20260502112524 | 2 | 245 | 1.6 | 6.4 | 0.00 | 0.00 | 0.00 | 63 | 1018.8 |
| 20260502112024 | 2 | 245 | 1.6 | 6.4 | 0.00 | 0.00 | 0.00 | 61 | 1018.9 |
| 20260502111537 | 2 | 245 | 3.2 | 8.0 | 0.00 | 0.00 | 0.00 | 62 | 1018.8 |
| 20260502111022 | 2 | 203 | 4.8 | 8.0 | 0.00 | 0.00 | 0.00 | 65 | 1018.7 |
| 20260502110525 | 1 | 133 | 0.0 | 3.2 | 0.00 | 0.00 | 0.00 | 68 | 1018.7 |
| 20260502110043 | 1 | 0 | 0.0 | 3.2 | 0.00 | 0.00 | 0.00 | 68 | 1018.6 |
| 20260502105525 | 1 | 19 | 1.6 | 3.2 | 0.00 | 0.00 | 0.00 | 69 | 1018.6 |
| 20260502105025 | 1 | 0 | 0.0 | 0.0 | 0.00 | 0.00 | 0.00 | 69 | 1018.7 |
| 20260502104540 | 1 | 0 | 0.0 | 3.2 | 0.00 | 0.00 | 0.00 | 69 | 1018.7 |
| 20260502104025 | 1 | 0 | 0.0 | 3.2 | 0.00 | 0.00 | 0.00 | 70 | 1018.8 |
| 20260502103526 | 1 | 251 | 0.0 | 3.2 | 0.00 | 0.00 | 0.00 | 67 | 1018.8 |
| 20260502103038 | 1 | 0 | 0.0 | 4.8 | 0.00 | 0.00 | 0.00 | 65 | 1018.9 |
| 20260502102525 | 1 | 0 | 1.6 | 4.8 | 0.00 | 0.00 | 0.00 | 64 | 1018.9 |
| 20260502102026 | 1 | 0 | 0.0 | 4.8 | 0.00 | 0.00 | 0.00 | 65 | 1018.8 |
| 20260502101536 | 1 | 233 | 1.6 | 4.8 | 0.00 | 0.00 | 0.00 | 65 | 1018.7 |
| 20260502101022 | 1 | 212 | 0.0 | 4.8 | 0.00 | 0.00 | 0.00 | 66 | 1018.7 |
| 20260502100522 | 1 | 207 | 0.0 | 4.8 | 0.00 | 0.00 | 0.00 | 64 | 1018.6 |
| 20260502091027 | 3 | 0 | 0.0 | 3.2 | 0.00 | 0.00 | 0.00 | 56 | 1018.5 |
| 20260502090526 | 3 | 0 | 0.0 | 3.2 | 0.00 | 0.00 | 0.00 | 59 | 1018.4 |
| 20260502071025 | 4 | 0 | 0.0 | 0.0 | 0.00 | 0.00 | 0.00 | 65 | 1019.1 |
| 20260502070526 | 4 | 0 | 0.0 | 0.0 | 0.00 | 0.00 | 0.00 | 65 | 1019.0 |
| 20260502070051 | 4 | 0 | 0.0 | 0.0 | 0.00 | 0.00 | 0.00 | 64 | 1018.9 |
| 20260502065528 | 4 | 0 | 0.0 | 1.6 | 0.00 | 0.00 | 0.00 | 62 | 1018.9 |
| 20260502065027 | 4 | 0 | 0.0 | 1.6 | 0.00 | 0.00 | 0.00 | 63 | 1018.8 |
| 20260502064545 | 4 | 257 | 0.0 | 1.6 | 0.00 | 0.00 | 0.00 | 64 | 1018.8 |
| 20260502064029 | 4 | 0 | 0.0 | 0.0 | 0.00 | 0.00 | 0.00 | 62 | 1018.9 |
| 20260502063526 | 4 | 0 | 0.0 | 0.0 | 0.00 | 0.00 | 0.00 | 60 | 1018.9 |
| 20260502063040 | 4 | 0 | 0.0 | 0.0 | 0.00 | 0.00 | 0.00 | 60 | 1018.8 |
| 20260502062526 | 4 | 0 | 0.0 | 0.0 | 0.00 | 0.00 | 0.00 | 60 | 1018.7 |
| 20260502062022 | 4 | 0 | 0.0 | 0.0 | 0.00 | 0.00 | 0.00 | 62 | 1018.7 |
| 20260502061536 | 4 | 0 | 0.0 | 0.0 | 0.00 | 0.00 | 0.00 | 61 | 1018.5 |
| 20260502061023 | 5 | 0 | 0.0 | 0.0 | 0.00 | 0.00 | 0.00 | 61 | 1018.5 |
| 20260502060525 | 5 | 0 | 0.0 | 0.0 | 0.00 | 0.00 | 0.00 | 60 | 1018.7 |
| 20260502060036 | 5 | 0 | 0.0 | 0.0 | 0.00 | 0.00 | 0.00 | 58 | 1018.5 |
| 20260502055523 | 5 | 0 | 0.0 | 0.0 | 0.00 | 0.00 | 0.00 | 58 | 1018.5 |
| 20260502055023 | 5 | 0 | 0.0 | 0.0 | 0.00 | 0.00 | 0.00 | 55 | 1018.5 |
| 20260502054537 | 5 | 0 | 0.0 | 0.0 | 0.00 | 0.00 | 0.00 | 56 | 1018.5 |
| 20260502054025 | 5 | 0 | 0.0 | 0.0 | 0.00 | 0.00 | 0.00 | 57 | 1018.5 |
| 20260502053522 | 6 | 0 | 0.0 | 0.0 | 0.00 | 0.00 | 0.00 | 56 | 1018.6 |
| 20260502053036 | 6 | 0 | 0.0 | 3.2 | 0.00 | 0.00 | 0.00 | 57 | 1018.6 |
| 20260502052522 | 6 | 0 | 0.0 | 4.8 | 0.00 | 0.00 | 0.00 | 55 | 1018.5 |
| 20260502052022 | 6 | 257 | 0.0 | 4.8 | 0.00 | 0.00 | 0.00 | 55 | 1018.4 |
| 20260502051537 | 6 | 0 | 0.0 | 0.0 | 0.00 | 0.00 | 0.00 | 54 | 1018.4 |
| 20260502051026 | 6 | 0 | 0.0 | 0.0 | 0.00 | 0.00 | 0.00 | 53 | 1018.4 |
| 20260502050522 | 7 | 0 | 0.0 | 0.0 | 0.00 | 0.00 | 0.00 | 52 | 1018.4 |
| 20260502050037 | 7 | 0 | 0.0 | 0.0 | 0.00 | 0.00 | 0.00 | 50 | 1018.3 |
| 20260502045522 | 7 | 0 | 0.0 | 0.0 | 0.00 | 0.00 | 0.00 | 47 | 1018.3 |
| 20260502045026 | 8 | 0 | 0.0 | 0.0 | 0.00 | 0.00 | 0.00 | 47 | 1018.2 |
| 20260502044539 | 8 | 0 | 0.0 | 0.0 | 0.00 | 0.00 | 0.00 | 46 | 1018.4 |
| 20260502044021 | 8 | 0 | 0.0 | 0.0 | 0.00 | 0.00 | 0.00 | 42 | 1018.2 |
| 20260502043524 | 8 | 0 | 0.0 | 0.0 | 0.00 | 0.00 | 0.00 | 42 | 1018.2 |
| 20260502043041 | 8 | 0 | 0.0 | 0.0 | 0.00 | 0.00 | 0.00 | 45 | 1018.2 |
| 20260502042525 | 8 | 0 | 0.0 | 0.0 | 0.00 | 0.00 | 0.00 | 44 | 1018.2 |
| 20260502042025 | 8 | 0 | 0.0 | 0.0 | 0.00 | 0.00 | 0.00 | 46 | 1018.3 |
| 20260502041545 | 8 | 0 | 0.0 | 0.0 | 0.00 | 0.00 | 0.00 | 47 | 1018.2 |
| 20260502041029 | 9 | 0 | 0.0 | 0.0 | 0.00 | 0.00 | 0.00 | 45 | 1018.2 |
| 20260502040522 | 10 | 0 | 0.0 | 0.0 | 0.00 | 0.00 | 0.00 | 43 | 1018.2 |
| 20260502040039 | 10 | 0 | 0.0 | 0.0 | 0.00 | 0.00 | 0.00 | 42 | 1018.2 |
| 20260502035523 | 10 | 0 | 0.0 | 0.0 | 0.00 | 0.00 | 0.00 | 41 | 1018.2 |
| 20260502035022 | 11 | 0 | 0.0 | 0.0 | 0.00 | 0.00 | 0.00 | 39 | 1018.2 |
| 20260502034540 | 11 | 0 | 0.0 | 1.6 | 0.00 | 0.00 | 0.00 | 38 | 1018.1 |
| 20260502034024 | 11 | 0 | 0.0 | 4.8 | 0.00 | 0.00 | 0.00 | 37 | 1018.1 |
| 20260502033524 | 11 | 0 | 0.0 | 4.8 | 0.00 | 0.00 | 0.00 | 41 | 1018.2 |
| 20260502033040 | 11 | 0 | 0.0 | 3.2 | 0.00 | 0.00 | 0.00 | 40 | 1018.2 |
| 20260502032525 | 11 | 0 | 0.0 | 1.6 | 0.00 | 0.00 | 0.00 | 41 | 1018.1 |
| 20260502032021 | 11 | 0 | 0.0 | 1.6 | 0.00 | 0.00 | 0.00 | 39 | 1018.0 |
| 20260502031536 | 12 | 0 | 0.0 | 1.6 | 0.00 | 0.00 | 0.00 | 38 | 1017.9 |
| 20260502031027 | 12 | 0 | 0.0 | 1.6 | 0.00 | 0.00 | 0.00 | 39 | 1017.9 |
| 20260502030526 | 12 | 0 | 0.0 | 3.2 | 0.00 | 0.00 | 0.00 | 37 | 1017.9 |
| 20260502030038 | 12 | 0 | 0.0 | 4.8 | 0.00 | 0.00 | 0.00 | 37 | 1017.8 |
| 20260502025527 | 12 | 1 | 1.6 | 4.8 | 0.00 | 0.00 | 0.00 | 37 | 1017.7 |
| 20260502025027 | 13 | 0 | 0.0 | 0.0 | 0.00 | 0.00 | 0.00 | 38 | 1017.7 |
| 20260502024542 | 13 | 0 | 0.0 | 3.2 | 0.00 | 0.00 | 0.00 | 36 | 1017.7 |
| 20260502024026 | 13 | 0 | 0.0 | 4.8 | 0.00 | 0.00 | 0.00 | 33 | 1017.7 |
| 20260502023527 | 14 | 2 | 1.6 | 4.8 | 0.00 | 0.00 | 0.00 | 33 | 1017.6 |
| 20260502023036 | 15 | 0 | 0.0 | 0.0 | 0.00 | 0.00 | 0.00 | 32 | 1017.5 |
| 20260502022526 | 15 | 0 | 0.0 | 0.0 | 0.00 | 0.00 | 0.00 | 32 | 1017.5 |
| 20260502022026 | 16 | 0 | 0.0 | 4.8 | 0.00 | 0.00 | 0.00 | 30 | 1017.4 |
| 20260502021540 | 16 | 0 | 0.0 | 4.8 | 0.00 | 0.00 | 0.00 | 29 | 1017.4 |
| 20260502021026 | 16 | 0 | 0.0 | 3.2 | 0.00 | 0.00 | 0.00 | 27 | 1017.4 |
| 20260502020527 | 17 | 0 | 0.0 | 4.8 | 0.00 | 0.00 | 0.00 | 27 | 1017.4 |
| 20260502020041 | 17 | 0 | 0.0 | 4.8 | 0.00 | 0.00 | 0.00 | 26 | 1017.4 |
| 20260502015527 | 17 | 97 | 1.6 | 4.8 | 0.00 | 0.00 | 0.00 | 26 | 1017.4 |
| 20260502015027 | 18 | 0 | 0.0 | 3.2 | 0.00 | 0.00 | 0.00 | 26 | 1017.3 |
| 20260502014550 | 18 | 0 | 1.6 | 6.4 | 0.00 | 0.00 | 0.00 | 24 | 1017.4 |
| 20260502014026 | 18 | 0 | 1.6 | 8.0 | 0.00 | 0.00 | 0.00 | 24 | 1017.3 |
| 20260502013524 | 18 | 0 | 3.2 | 8.0 | 0.00 | 0.00 | 0.00 | 24 | 1017.1 |
| 20260502013041 | 18 | 64 | 1.6 | 9.7 | 0.00 | 0.00 | 0.00 | 25 | 1017.2 |
| 20260502012526 | 18 | 75 | 3.2 | 12.9 | 0.00 | 0.00 | 0.00 | 23 | 1017.1 |
| 20260502012027 | 19 | 44 | 4.8 | 12.9 | 0.00 | 0.00 | 0.00 | 22 | 1017.2 |
| 20260502011545 | 19 | 23 | 4.8 | 14.5 | 0.00 | 0.00 | 0.00 | 21 | 1017.1 |
| 20260502011026 | 19 | 360 | 6.4 | 14.5 | 0.00 | 0.00 | 0.00 | 22 | 1017.2 |
| 20260502010526 | 20 | 326 | 3.2 | 6.4 | 0.00 | 0.00 | 0.00 | 21 | 1017.1 |
| 20260502010039 | 20 | 285 | 1.6 | 6.4 | 0.00 | 0.00 | 0.00 | 20 | 1017.2 |
| 20260502005527 | 20 | 0 | 3.2 | 6.4 | 0.00 | 0.00 | 0.00 | 19 | 1017.2 |
| 20260502005027 | 20 | 338 | 1.6 | 11.3 | 0.00 | 0.00 | 0.00 | 19 | 1017.3 |
| 20260502004536 | 20 | 311 | 0.0 | 12.9 | 0.00 | 0.00 | 0.00 | 22 | 1017.2 |
| 20260502004026 | 20 | 349 | 6.4 | 12.9 | 0.00 | 0.00 | 0.00 | 21 | 1017.3 |
| 20260502003527 | 20 | 359 | 4.8 | 9.7 | 0.00 | 0.00 | 0.00 | 19 | 1017.4 |
| 20260502003036 | 20 | 345 | 3.2 | 11.3 | 0.00 | 0.00 | 0.00 | 19 | 1017.3 |
| 20260502002527 | 20 | 75 | 4.8 | 12.9 | 0.00 | 0.00 | 0.00 | 21 | 1017.3 |
| 20260502002026 | 20 | 38 | 1.6 | 12.9 | 0.00 | 0.00 | 0.00 | 21 | 1017.4 |
| 20260502001536 | 20 | 333 | 4.8 | 12.9 | 0.00 | 0.00 | 0.00 | 20 | 1017.3 |
| 20260502001028 | 20 | 70 | 1.6 | 6.4 | 0.00 | 0.00 | 0.00 | 20 | 1017.3 |
| 20260502000527 | 20 | 342 | 3.2 | 11.3 | 0.00 | 0.00 | 0.00 | 20 | 1017.3 |
| 20260502000052 | 20 | 73 | 4.8 | 16.1 | 0.00 | 0.00 | 0.00 | 20 | 1017.3 |
| 20260501235527 | 20 | 23 | 6.4 | 16.1 | 0.00 | 0.00 | 0.00 | 21 | 1017.4 |
| 20260501235027 | 20 | 39 | 1.6 | 9.7 | 0.00 | 0.00 | 0.00 | 19 | 1017.4 |
| 20260501234538 | 20 | 6 | 4.8 | 9.7 | 0.00 | 0.00 | 0.00 | 19 | 1017.3 |
| 20260501234027 | 20 | 33 | 1.6 | 14.5 | 0.00 | 0.00 | 0.00 | 19 | 1017.4 |
| 20260501233529 | 20 | 338 | 6.4 | 14.5 | 0.00 | 0.00 | 0.00 | 17 | 1017.4 |
| 20260501233036 | 20 | 321 | 3.2 | 19.3 | 0.00 | 0.00 | 0.00 | 19 | 1017.4 |
| 20260501232526 | 20 | 348 | 9.7 | 19.3 | 0.00 | 0.00 | 0.00 | 19 | 1017.4 |
| 20260501232027 | 21 | 356 | 6.4 | 12.9 | 0.00 | 0.00 | 0.00 | 19 | 1017.4 |
| 20260501231536 | 21 | 358 | 1.6 | 8.0 | 0.00 | 0.00 | 0.00 | 17 | 1017.4 |
| 20260501231026 | 21 | 0 | 3.2 | 14.5 | 0.00 | 0.00 | 0.00 | 17 | 1017.4 |
| 20260501230526 | 20 | 307 | 3.2 | 14.5 | 0.00 | 0.00 | 0.00 | 19 | 1017.5 |
| 20260501230036 | 20 | 20 | 3.2 | 17.7 | 0.00 | 0.00 | 0.00 | 18 | 1017.5 |
| 20260501225526 | 20 | 322 | 4.8 | 17.7 | 0.00 | 0.00 | 0.00 | 20 | 1017.4 |
| 20260501225027 | 20 | 291 | 6.4 | 14.5 | 0.00 | 0.00 | 0.00 | 18 | 1017.5 |
| 20260501224536 | 20 | 334 | 6.4 | 14.5 | 0.00 | 0.00 | 0.00 | 19 | 1017.6 |
| 20260501224027 | 21 | 349 | 4.8 | 24.1 | 0.00 | 0.00 | 0.00 | 20 | 1017.7 |
| 20260501223527 | 20 | 237 | 3.2 | 24.1 | 0.00 | 0.00 | 0.00 | 21 | 1017.6 |
| 20260501223040 | 20 | 287 | 6.4 | 24.1 | 0.00 | 0.00 | 0.00 | 22 | 1017.6 |
| 20260501222527 | 20 | 231 | 3.2 | 12.9 | 0.00 | 0.00 | 0.00 | 20 | 1017.8 |
| 20260501222027 | 20 | 207 | 6.4 | 12.9 | 0.00 | 0.00 | 0.00 | 21 | 1017.8 |
| 20260501221538 | 20 | 216 | 4.8 | 11.3 | 0.00 | 0.00 | 0.00 | 20 | 1017.9 |
| 20260501221024 | 20 | 215 | 1.6 | 12.9 | 0.00 | 0.00 | 0.00 | 21 | 1018.0 |
| 20260501220526 | 20 | 250 | 3.2 | 17.7 | 0.00 | 0.00 | 0.00 | 21 | 1018.1 |
| 20260501220037 | 20 | 351 | 3.2 | 17.7 | 0.00 | 0.00 | 0.00 | 22 | 1018.2 |
| 20260501215527 | 20 | 242 | 8.0 | 17.7 | 0.00 | 0.00 | 0.00 | 25 | 1018.0 |
| 20260501215024 | 20 | 266 | 3.2 | 16.1 | 0.00 | 0.00 | 0.00 | 24 | 1018.1 |
| 20260501214540 | 20 | 176 | 8.0 | 16.1 | 0.00 | 0.00 | 0.00 | 21 | 1018.1 |
| 20260501214023 | 20 | 153 | 4.8 | 16.1 | 0.00 | 0.00 | 0.00 | 21 | 1018.2 |
| 20260501213530 | 19 | 241 | 6.4 | 16.1 | 0.00 | 0.00 | 0.00 | 22 | 1018.3 |
| 20260501213036 | 19 | 96 | 3.2 | 14.5 | 0.00 | 0.00 | 0.00 | 25 | 1018.4 |
| 20260501212524 | 19 | 130 | 1.6 | 14.5 | 0.00 | 0.00 | 0.00 | 25 | 1018.4 |
| 20260501212028 | 19 | 72 | 6.4 | 14.5 | 0.00 | 0.00 | 0.00 | 23 | 1018.4 |
| 20260501211542 | 19 | 0 | 1.6 | 11.3 | 0.00 | 0.00 | 0.00 | 23 | 1018.5 |
| 20260501211034 | 19 | 284 | 4.8 | 11.3 | 0.00 | 0.00 | 0.00 | 23 | 1018.5 |
| 20260501210526 | 18 | 8 | 3.2 | 11.3 | 0.00 | 0.00 | 0.00 | 24 | 1018.6 |
| 20260501210036 | 18 | 44 | 3.2 | 11.3 | 0.00 | 0.00 | 0.00 | 26 | 1018.7 |
| 20260501205527 | 19 | 359 | 3.2 | 9.7 | 0.00 | 0.00 | 0.00 | 24 | 1018.8 |
| 20260501205027 | 19 | 345 | 0.0 | 9.7 | 0.00 | 0.00 | 0.00 | 26 | 1018.8 |
| 20260501204540 | 18 | 84 | 3.2 | 9.7 | 0.00 | 0.00 | 0.00 | 25 | 1018.8 |
| 20260501204023 | 18 | 147 | 3.2 | 8.0 | 0.00 | 0.00 | 0.00 | 26 | 1018.8 |
| 20260501203529 | 18 | 16 | 3.2 | 12.9 | 0.00 | 0.00 | 0.00 | 25 | 1019.0 |
| 20260501203037 | 18 | 105 | 6.4 | 12.9 | 0.00 | 0.00 | 0.00 | 26 | 1018.9 |
| 20260501202523 | 18 | 82 | 6.4 | 12.9 | 0.00 | 0.00 | 0.00 | 27 | 1018.9 |
| 20260501202023 | 18 | 51 | 4.8 | 14.5 | 0.00 | 0.00 | 0.00 | 25 | 1018.9 |
| 20260501201546 | 18 | 245 | 6.4 | 14.5 | 0.00 | 0.00 | 0.00 | 27 | 1019.1 |
| 20260501201026 | 18 | 4 | 3.2 | 12.9 | 0.00 | 0.00 | 0.00 | 26 | 1019.1 |
| 20260501200526 | 18 | 46 | 6.4 | 17.7 | 0.00 | 0.00 | 0.00 | 25 | 1019.1 |
| 20260501200041 | 18 | 341 | 9.7 | 17.7 | 0.00 | 0.00 | 0.00 | 26 | 1019.2 |
| 20260501195527 | 17 | 46 | 4.8 | 17.7 | 0.00 | 0.00 | 0.00 | 26 | 1019.2 |
| 20260501195027 | 18 | 285 | 4.8 | 9.7 | 0.00 | 0.00 | 0.00 | 27 | 1019.2 |
| 20260501194543 | 17 | 318 | 4.8 | 16.1 | 0.00 | 0.00 | 0.00 | 29 | 1019.4 |
| 20260501194027 | 17 | 359 | 6.4 | 16.1 | 0.00 | 0.00 | 0.00 | 29 | 1019.3 |
| 20260501193526 | 17 | 348 | 4.8 | 16.1 | 0.00 | 0.00 | 0.00 | 30 | 1019.4 |
| 20260501193039 | 17 | 35 | 3.2 | 12.9 | 0.00 | 0.00 | 0.00 | 28 | 1019.5 |
| 20260501192523 | 17 | 327 | 6.4 | 14.5 | 0.00 | 0.00 | 0.00 | 27 | 1019.5 |
| 20260501192026 | 17 | 253 | 8.0 | 16.1 | 0.00 | 0.00 | 0.00 | 31 | 1019.4 |
| 20260501191536 | 17 | 354 | 1.6 | 17.7 | 0.00 | 0.00 | 0.00 | 28 | 1019.5 |
| 20260501191028 | 17 | 337 | 8.0 | 17.7 | 0.00 | 0.00 | 0.00 | 29 | 1019.5 |
| 20260501190527 | 17 | 359 | 9.7 | 14.5 | 0.00 | 0.00 | 0.00 | 27 | 1019.6 |